When you browse on this site, cookies collect data to enhance your experience and personalize the content and advertising you see.
Visit our Privacy Policy to learn more. By continuing to use the site, you agree to this use of cookies and data.
  • In Lithuania
  • List of Countries
  • For 7 days
  • Water Temperature
  • Weather Map
  • Weather Widgets
  • user-avatar
    Login

    Hourly Weather Barra

    Today, 20 October, Sunday

    Time Temperature Precipitation Wind Pressure Humidity
    00:00 +21°C° 0 mm 1 mps 750 mmHg 94%
    01:00 +21°C° 0 mm 1 mps 750 mmHg 94%
    02:00 +21°C° 0 mm 1 mps 750 mmHg 93%
    03:00 +20°C° 0 mm 1 mps 750 mmHg 92%
    04:00 +20°C° 0 mm 1 mps 749 mmHg 90%
    05:00 +21°C° 0 mm 1 mps 750 mmHg 80%
    06:00 +22°C° 0 mm 1 mps 750 mmHg 69%
    07:00 +23°C° 0 mm 1 mps 750 mmHg 59%
    08:00 +26°C° 0 mm 1 mps 750 mmHg 45%
    09:00 +30°C° 0 mm 1 mps 751 mmHg 30%
    10:00 +34°C° 0 mm 1 mps 751 mmHg 20%
    11:00 +35°C° 0 mm 2 mps 750 mmHg 22%
    12:00 +35°C° 0 mm 3 mps 749 mmHg 23%
    13:00 +35°C° 0 mm 4 mps 748 mmHg 25%
    14:00 +34°C° 0 mm 4 mps 748 mmHg 31%
    15:00 +33°C° 0 mm 4 mps 747 mmHg 37%
    16:00 +32°C° 0 mm 4 mps 747 mmHg 42%
    17:00 +29°C° 0 mm 3 mps 748 mmHg 55%
    18:00 +26°C° 0 mm 2 mps 748 mmHg 68%
    19:00 +23°C° 0 mm 1 mps 749 mmHg 82%
    20:00 +23°C° 0 mm 1 mps 749 mmHg 85%
    21:00 +22°C° 0 mm 1 mps 750 mmHg 88%
    22:00 +21°C° 0 mm 2 mps 751 mmHg 91%
    23:00 +21°C° 0 mm 2 mps 750 mmHg 91%

    Tomorrow, 21 October, Monday

    Time Temperature Precipitation Wind Pressure Humidity
    00:00 +22°C° 0 mm 1 mps 750 mmHg 90%
    01:00 +22°C° 0 mm 1 mps 750 mmHg 90%
    02:00 +21°C° 0 mm 2 mps 750 mmHg 90%
    03:00 +21°C° 0 mm 2 mps 750 mmHg 90%
    04:00 +21°C° 0 mm 2 mps 750 mmHg 90%
    05:00 +23°C° 0 mm 2 mps 750 mmHg 87%
    06:00 +24°C° 0 mm 2 mps 750 mmHg 83%
    07:00 +24°C° 0 mm 2 mps 750 mmHg 80%
    08:00 +25°C° 0.1 mm 2 mps 750 mmHg 75%
    09:00 +26°C° 0.1 mm 3 mps 751 mmHg 70%
    10:00 +27°C° 0.1 mm 3 mps 751 mmHg 64%
    11:00 +27°C° 0.6 mm 3 mps 750 mmHg 65%
    12:00 +27°C° 0.6 mm 4 mps 750 mmHg 65%
    13:00 +27°C° 0.6 mm 4 mps 749 mmHg 66%
    14:00 +28°C° 0.2 mm 4 mps 749 mmHg 65%
    15:00 +28°C° 0.2 mm 4 mps 749 mmHg 64%
    16:00 +28°C° 0.2 mm 4 mps 749 mmHg 62%
    17:00 +26°C° 0.4 mm 4 mps 750 mmHg 69%
    18:00 +25°C° 0.4 mm 4 mps 750 mmHg 76%
    19:00 +22°C° 0.4 mm 4 mps 751 mmHg 82%
    20:00 +22°C° 0.9 mm 5 mps 751 mmHg 85%
    21:00 +22°C° 0.9 mm 5 mps 752 mmHg 87%
    22:00 +21°C° 0.9 mm 6 mps 752 mmHg 89%
    23:00 +21°C° 1.2 mm 6 mps 752 mmHg 89%

    Day after tomorrow, 22 October, Tuesday

    Time Temperature Precipitation Wind Pressure Humidity
    00:00 +21°C° 1.2 mm 6 mps 751 mmHg 90%
    01:00 +21°C° 1.2 mm 6 mps 751 mmHg 90%
    02:00 +21°C° 0.8 mm 6 mps 751 mmHg 89%
    03:00 +21°C° 0.8 mm 6 mps 751 mmHg 89%
    04:00 +21°C° 0.8 mm 6 mps 751 mmHg 88%
    05:00 +22°C° 0.4 mm 6 mps 751 mmHg 87%
    06:00 +22°C° 0.4 mm 6 mps 751 mmHg 85%
    07:00 +22°C° 0.4 mm 6 mps 752 mmHg 84%
    08:00 +24°C° 0.2 mm 6 mps 752 mmHg 75%
    09:00 +26°C° 0.2 mm 6 mps 752 mmHg 66%
    10:00 +28°C° 0.2 mm 7 mps 752 mmHg 57%
    11:00 +28°C° 0 mm 7 mps 751 mmHg 55%
    12:00 +28°C° 0 mm 7 mps 751 mmHg 53%
    13:00 +29°C° 0 mm 7 mps 750 mmHg 51%
    14:00 +28°C° 0 mm 6 mps 750 mmHg 52%
    15:00 +28°C° 0 mm 6 mps 750 mmHg 53%
    16:00 +27°C° 0 mm 6 mps 750 mmHg 54%
    17:00 +26°C° 0 mm 6 mps 750 mmHg 62%
    18:00 +23°C° 0 mm 5 mps 750 mmHg 69%
    19:00 +22°C° 0 mm 5 mps 751 mmHg 77%
    20:00 +21°C° 0 mm 5 mps 751 mmHg 79%
    21:00 +21°C° 0 mm 5 mps 752 mmHg 82%
    22:00 +21°C° 0 mm 5 mps 752 mmHg 84%
    23:00 +21°C° 0.1 mm 5 mps 752 mmHg 84%

    23 October, Wednesday

    Time Temperature Precipitation Wind Pressure Humidity
    00:00 +21°C° 0.1 mm 5 mps 751 mmHg 85%
    01:00 +20°C° 0.1 mm 5 mps 751 mmHg 85%
    02:00 +20°C° 0.1 mm 5 mps 751 mmHg 85%
    03:00 +20°C° 0.1 mm 5 mps 751 mmHg 86%
    04:00 +20°C° 0.1 mm 5 mps 751 mmHg 87%
    05:00 +21°C° 0.1 mm 5 mps 751 mmHg 84%
    06:00 +21°C° 0.1 mm 5 mps 751 mmHg 81%
    07:00 +22°C° 0.1 mm 5 mps 751 mmHg 78%
    08:00 +23°C° 0.1 mm 5 mps 751 mmHg 74%
    09:00 +25°C° 0.1 mm 5 mps 752 mmHg 69%
    10:00 +26°C° 0.1 mm 5 mps 752 mmHg 64%
    11:00 +27°C° 0.2 mm 5 mps 751 mmHg 62%
    12:00 +27°C° 0.2 mm 6 mps 750 mmHg 60%
    13:00 +28°C° 0.2 mm 6 mps 750 mmHg 59%
    14:00 +27°C° 0.1 mm 6 mps 749 mmHg 60%
    15:00 +27°C° 0.1 mm 6 mps 749 mmHg 61%
    16:00 +27°C° 0.1 mm 6 mps 749 mmHg 62%
    17:00 +25°C° 0.1 mm 5 mps 749 mmHg 70%
    18:00 +23°C° 0.1 mm 5 mps 750 mmHg 77%
    19:00 +21°C° 0.1 mm 5 mps 750 mmHg 85%
    20:00 +21°C° 0.2 mm 5 mps 750 mmHg 87%
    21:00 +21°C° 0.2 mm 5 mps 751 mmHg 89%
    22:00 +21°C° 0.2 mm 5 mps 751 mmHg 91%
    23:00 +21°C° 0.2 mm 5 mps 751 mmHg 91%

    24 October, Thursday

    Time Temperature Precipitation Wind Pressure Humidity
    00:00 +21°C° 0.2 mm 5 mps 750 mmHg 92%
    01:00 +20°C° 0.2 mm 5 mps 750 mmHg 92%
    02:00 +20°C° 0.2 mm 5 mps 750 mmHg 92%
    03:00 +20°C° 0.2 mm 5 mps 750 mmHg 92%
    04:00 +20°C° 0.2 mm 5 mps 749 mmHg 92%
    05:00 +21°C° 0.3 mm 5 mps 750 mmHg 90%
    06:00 +21°C° 0.3 mm 4 mps 750 mmHg 88%
    07:00 +22°C° 0.3 mm 4 mps 750 mmHg 87%
    08:00 +23°C° 0.4 mm 5 mps 750 mmHg 83%
    09:00 +25°C° 0.4 mm 5 mps 750 mmHg 79%
    10:00 +26°C° 0.4 mm 5 mps 750 mmHg 75%
    11:00 +26°C° 0.1 mm 5 mps 750 mmHg 70%
    12:00 +27°C° 0.1 mm 5 mps 749 mmHg 66%
    13:00 +28°C° 0.1 mm 5 mps 749 mmHg 62%
    14:00 +28°C° 0.2 mm 5 mps 749 mmHg 63%
    15:00 +28°C° 0.2 mm 5 mps 748 mmHg 64%
    16:00 +27°C° 0.2 mm 4 mps 748 mmHg 66%
    17:00 +26°C° 0.4 mm 4 mps 748 mmHg 73%
    18:00 +23°C° 0.4 mm 4 mps 749 mmHg 81%
    19:00 +22°C° 0.4 mm 3 mps 749 mmHg 88%
    20:00 +22°C° 0.3 mm 3 mps 750 mmHg 89%
    21:00 +22°C° 0.3 mm 4 mps 750 mmHg 90%
    22:00 +22°C° 0.3 mm 4 mps 750 mmHg 92%
    23:00 +22°C° 0.2 mm 4 mps 750 mmHg 91%

    25 October, Friday

    Time Temperature Precipitation Wind Pressure Humidity
    00:00 +22°C° 0.2 mm 4 mps 749 mmHg 90%
    01:00 +22°C° 0.2 mm 3 mps 749 mmHg 90%
    02:00 +22°C° 0.1 mm 3 mps 749 mmHg 90%
    03:00 +21°C° 0.1 mm 3 mps 749 mmHg 90%
    04:00 +21°C° 0.1 mm 3 mps 748 mmHg 91%
    05:00 +22°C° 0.1 mm 3 mps 749 mmHg 89%
    06:00 +22°C° 0.1 mm 3 mps 749 mmHg 87%
    07:00 +24°C° 0.1 mm 3 mps 750 mmHg 85%
    08:00 +25°C° 0 mm 3 mps 750 mmHg 75%
    09:00 +27°C° 0 mm 4 mps 750 mmHg 66%
    10:00 +29°C° 0 mm 4 mps 749 mmHg 56%
    11:00 +29°C° 0 mm 4 mps 749 mmHg 55%
    12:00 +29°C° 0 mm 4 mps 748 mmHg 54%
    13:00 +30°C° 0 mm 4 mps 748 mmHg 52%
    14:00 +29°C° 0 mm 4 mps 747 mmHg 55%
    15:00 +29°C° 0 mm 4 mps 747 mmHg 58%
    16:00 +28°C° 0 mm 4 mps 747 mmHg 61%
    17:00 +27°C° 0.1 mm 3 mps 747 mmHg 70%
    18:00 +25°C° 0.1 mm 3 mps 748 mmHg 79%
    19:00 +24°C° 0.1 mm 3 mps 748 mmHg 88%
    20:00 +24°C° 0 mm 3 mps 748 mmHg 89%
    21:00 +22°C° 0 mm 3 mps 749 mmHg 90%
    22:00 +22°C° 0 mm 3 mps 749 mmHg 91%
    23:00 +22°C° 0.1 mm 3 mps 749 mmHg 92%
    Show more